Simultaneous Nadir Overpasses (SNOs) Predictions

Prediction of SNOs between METOP-B and NOAA-19 Satellite Orbit:

Table of predicted SNOs for the next 14.0 days since TLE Epoch: 6/14/2019
Index Date (METOP-B) Time (METOP-B) Lat,Lon (METOP-B) SZA (METOP-B ) Date (NOAA-19) Time (NOAA-19) Lat,Lon (NOAA-19) SZA (NOAA-19 ) Distance(km) Time Diff (sec)
1 06/24/2019 07:16:24 79.30, 87.02 56.26 06/24/2019 07:15:16 79.32, 87.11 56.27 2.64 68
2 06/24/2019 08:07:05 -79.33,-105.49 123.71 06/24/2019 08:06:21 -79.30,-105.51 123.74 2.56 44
3 06/24/2019 08:57:45 79.32, 61.83 56.29 06/24/2019 08:57:16 79.29, 61.84 56.26 3.31 29
4 06/24/2019 09:48:27 -79.31,-130.94 123.73 06/24/2019 09:48:22 -79.31,-131.05 123.74 2.35 5
5 06/24/2019 10:39:07 79.31, 36.38 56.27 06/24/2019 10:39:17 79.30, 36.29 56.26 2.25 10
6 06/24/2019 11:29:49 -79.30,-156.39 123.75 06/24/2019 11:30:22 -79.28,-156.33 123.75 2.07 33
7 06/24/2019 12:20:29 79.30, 10.94 56.26 06/24/2019 12:21:17 79.27, 11.02 56.25 2.90 48
8 06/24/2019 13:11:11 -79.28, 178.17 123.76 06/24/2019 13:12:23 -79.29, 178.13 123.75 0.96 72




NCC Satellite Simultaneous Nadir Overpasses (SNOs) Prediction Service
